This is the latest recevied weather packets stored in our database for station/object W5ITZ. If no packets are shown the sender has not sent any weather packets the latest 10 day(s).
| Time | Temp. | Humidity | Pressure | Rain* | Wind** | Luminosity | Snow |
|---|---|---|---|---|---|---|---|
| 1788127576 | 34.44° C | 56% | 1013 hPa | 0 mm | - | 446 W/m² | - |
| 1788127274 | 34.44° C | 52% | 1013.1 hPa | 0 mm | - | 473 W/m² | - |
| 1788126974 | 34.44° C | 51% | 1013.3 hPa | 0 mm | - | 501 W/m² | - |
| 1788126668 | 34.44° C | 52% | 1013.4 hPa | 0 mm | - | 521 W/m² | - |
| 1788126362 | 34.44° C | 53% | 1012.9 hPa | 0 mm | - | 535 W/m² | - |
| 1788126052 | 35° C | 51% | 1013.2 hPa | 0 mm | - | 545 W/m² | - |
| 1788125752 | 35.56° C | 50% | 1013.2 hPa | 0 mm | - | 567 W/m² | - |
| 1788125447 | 35° C | 51% | 1013.1 hPa | 0 mm | - | 598 W/m² | - |
| 1788125143 | 35° C | 50% | 1013.4 hPa | 0 mm | - | 644 W/m² | - |
| 1788124848 | 35.56° C | 49% | 1013.7 hPa | 0 mm | - | 650 W/m² | - |
| 1788124533 | 35.56° C | 49% | 1013.5 hPa | 0 mm | - | 652 W/m² | - |
| 1788124232 | 35° C | 50% | 1013.5 hPa | 0 mm | - | 662 W/m² | - |
| 1788123927 | 35° C | 51% | 1013.7 hPa | 0 mm | - | 686 W/m² | - |
| 1788123627 | 35° C | 50% | 1013.6 hPa | 0 mm | - | 706 W/m² | - |
| 1788123324 | 35° C | 49% | 1013.7 hPa | 0 mm | - | 724 W/m² | - |
| 1788123021 | 35° C | 50% | 1013.8 hPa | 0 mm | - | 762 W/m² | - |
| 1788122719 | 35° C | 50% | 1013.8 hPa | 0 mm | - | 768 W/m² | - |
| 1788122419 | 35.56° C | 50% | 1013.8 hPa | 0 mm | - | 798 W/m² | - |
| 1788122115 | 35.56° C | 49% | 1014.2 hPa | 0 mm | - | 811 W/m² | - |
| 1788121810 | 35.56° C | 49% | 1014.2 hPa | 0 mm | - | 831 W/m² | - |
| 1788121504 | 35.56° C | 48% | 1014.3 hPa | 0 mm | - | 836 W/m² | - |
| 1788121200 | 35.56° C | 48% | 1014.4 hPa | 0 mm | - | 852 W/m² | - |
| 1788120913 | 35.56° C | 47% | 1014.2 hPa | 0 mm | - | 840 W/m² | - |
| 1788120595 | 35.56° C | 47% | 1014.3 hPa | 0 mm | - | 852 W/m² | - |
| 1788120294 | 35.56° C | 47% | 1014.1 hPa | 0 mm | - | 862 W/m² | - |
* Rain latest hour (hover to see other rain measurements)
** Current wind speed in m/s (hover to see current wind gust speed)